{"data":{"norad_id":61261,"epoch":"2026-05-25T04:05:34.459008Z","epoch_age_seconds":60620,"freshness":"FRESH","line1":"1 61261U 24175U   26145.17053772 -.00000569  00000+0 -70664-5 0  9994","line2":"2 61261  53.1611 198.7613 0001859  98.3193 261.8019 15.30184980 93161","mean_motion":15.3018498,"eccentricity":0.0001859,"inclination_deg":53.1611,"raan_deg":198.7613,"arg_perigee_deg":98.3193,"mean_anomaly_deg":261.8019,"bstar":-7.0664e-6,"rev_number":9316,"period_min":94.106269426328,"perigee_km":473.98587031196,"apogee_km":476.53396328562,"semimajor_km":6853.3969167988,"source":"CELESTRAK","updated_at":"2026-05-25T13:38:19.367680Z"}}